Time,TemperatureF,DewpointF,PressureIn,WindDirection,WindDirectionDegrees,WindSpeedMPH,WindSpeedGustMPH,Humidity,HourlyPrecipIn,Conditions,Clouds,dailyrainin,SoftwareType,DateUTC
2013-05-09 00:00:00,70.9,58.1,30.09,WNW,292,0.0,0.0,64,0.00,CLR,OVC,0.00,WeatherDisplay:10.37,2013-05-09 04:00:00,
2013-05-09 00:01:00,70.9,58.1,30.09,WNW,292,0.0,0.0,64,0.00,CLR,OVC,0.00,WeatherDisplay:10.37,2013-05-09 04:01:00,
2013-05-09 00:06:00,70.8,58.4,30.09,WNW,292,0.0,0.0,65,0.00,CLR,OVC,0.00,WeatherDisplay:10.37,2013-05-09 04:06:00,
2013-05-09 00:11:00,70.4,58.5,30.09,WNW,292,0.0,0.0,66,0.00,CLR,OVC,0.00,WeatherDisplay:10.37,2013-05-09 04:11:00,
2013-05-09 00:16:00,70.3,58.4,30.09,WNW,292,0.0,0.0,66,0.00,CLR,OVC,0.00,WeatherDisplay:10.37,2013-05-09 04:16:00,
2013-05-09 00:21:00,69.9,58.4,30.09,WNW,292,0.0,0.0,67,0.00,CLR,OVC,0.00,WeatherDisplay:10.37,2013-05-09 04:21:00,
2013-05-09 00:26:00,69.8,59.2,30.09,WNW,292,0.0,0.0,69,0.00,CLR,OVC,0.00,WeatherDisplay:10.37,2013-05-09 04:26:00,
2013-05-09 00:31:00,69.4,59.2,30.09,WNW,292,0.0,0.0,70,0.00,CLR,OVC,0.00,WeatherDisplay:10.37,2013-05-09 04:31:00,
2013-05-09 00:36:00,69.1,58.9,30.09,WNW,292,0.0,0.0,70,0.00,CLR,OVC,0.00,WeatherDisplay:10.37,2013-05-09 04:36:00,
2013-05-09 00:41:00,68.8,58.6,30.09,WNW,292,0.0,0.0,70,0.00,CLR,OVC,0.00,WeatherDisplay:10.37,2013-05-09 04:41:00,
2013-05-09 00:46:00,68.6,58.8,30.08,WNW,292,0.0,0.0,71,0.00,CLR,OVC,0.00,WeatherDisplay:10.37,2013-05-09 04:46:00,
2013-05-09 00:52:00,68.6,59.6,30.08,WNW,292,0.0,0.0,73,0.00,CLR,OVC,0.00,WeatherDisplay:10.37,2013-05-09 04:52:00,
2013-05-09 00:56:00,68.4,59.4,30.08,WNW,292,0.0,0.0,73,0.00,CLR,OVC,0.00,WeatherDisplay:10.37,2013-05-09 04:56:00,
2013-05-09 01:02:00,67.9,58.1,30.08,WNW,292,0.0,0.0,71,0.00,,OVC,0.00,WeatherDisplay:10.37,2013-05-09 05:02:00,
2013-05-09 01:07:00,67.8,58.4,30.08,WNW,292,0.0,0.0,72,0.00,,OVC,0.00,WeatherDisplay:10.37,2013-05-09 05:07:00,
2013-05-09 01:12:00,67.6,58.6,30.08,WNW,292,0.0,0.0,73,0.00,,OVC,0.00,WeatherDisplay:10.37,2013-05-09 05:12:00,
2013-05-09 01:17:00,67.4,58.1,30.08,WNW,292,0.0,0.0,72,0.00,,OVC,0.00,WeatherDisplay:10.37,2013-05-09 05:17:00,
2013-05-09 01:22:00,67.4,58.8,30.08,WNW,292,0.0,0.0,74,0.00,,OVC,0.00,WeatherDisplay:10.37,2013-05-09 05:22:00,
2013-05-09 01:27:00,67.3,58.7,30.08,WNW,292,0.0,0.0,74,0.00,,OVC,0.00,WeatherDisplay:10.37,2013-05-09 05:27:00,
2013-05-09 01:32:00,67.1,58.5,30.07,WNW,292,0.0,0.0,74,0.00,,OVC,0.00,WeatherDisplay:10.37,2013-05-09 05:32:00,
2013-05-09 01:37:00,66.9,58.7,30.07,WNW,292,0.0,0.0,75,0.00,,OVC,0.00,WeatherDisplay:10.37,2013-05-09 05:37:00,
2013-05-09 01:42:00,66.9,59.5,30.07,WNW,292,0.0,0.0,77,0.00,,OVC,0.00,WeatherDisplay:10.37,2013-05-09 05:42:00,
2013-05-09 01:47:00,66.8,59.7,30.07,WNW,292,0.0,0.0,78,0.00,,OVC,0.00,WeatherDisplay:10.37,2013-05-09 05:47:00,
2013-05-09 01:52:00,66.6,59.5,30.07,WNW,292,0.0,0.0,78,0.00,,OVC,0.00,WeatherDisplay:10.37,2013-05-09 05:52:00,
2013-05-09 01:57:00,66.4,59.3,30.07,WNW,292,0.0,0.0,78,0.00,,OVC,0.00,WeatherDisplay:10.37,2013-05-09 05:57:00,
2013-05-09 02:02:00,66.3,59.6,30.06,WNW,292,0.0,0.0,79,0.00,,OVC,0.00,WeatherDisplay:10.37,2013-05-09 06:02:00,
2013-05-09 02:07:00,66.4,60.0,30.06,WNW,292,0.0,0.0,80,0.00,,OVC,0.00,WeatherDisplay:10.37,2013-05-09 06:07:00,
2013-05-09 02:12:00,66.4,60.0,30.06,WNW,292,0.0,0.0,80,0.00,,OVC,0.00,WeatherDisplay:10.37,2013-05-09 06:12:00,
2013-05-09 02:17:00,66.6,60.2,30.06,WNW,292,0.0,0.0,80,0.00,,OVC,0.00,WeatherDisplay:10.37,2013-05-09 06:17:00,
2013-05-09 02:22:00,66.4,60.0,30.06,WNW,292,0.0,0.0,80,0.00,,OVC,0.00,WeatherDisplay:10.37,2013-05-09 06:22:00,
2013-05-09 02:27:00,66.4,60.4,30.06,WNW,292,0.0,0.0,81,0.00,,OVC,0.00,WeatherDisplay:10.37,2013-05-09 06:27:00,
2013-05-09 02:32:00,66.3,60.6,30.06,WNW,292,0.0,0.0,82,0.00,,OVC,0.00,WeatherDisplay:10.37,2013-05-09 06:32:00,
2013-05-09 02:37:00,66.1,60.4,30.06,WNW,292,0.0,0.0,82,0.00,,OVC,0.00,WeatherDisplay:10.37,2013-05-09 06:37:00,
2013-05-09 02:42:00,66.0,60.3,30.06,WNW,292,0.0,0.0,82,0.00,,OVC,0.00,WeatherDisplay:10.37,2013-05-09 06:42:00,
2013-05-09 02:47:00,65.8,60.2,30.05,WNW,292,0.0,0.0,82,0.00,,OVC,0.00,WeatherDisplay:10.37,2013-05-09 06:47:00,
2013-05-09 02:52:00,65.6,60.3,30.05,WNW,292,0.0,0.0,83,0.00,,OVC,0.00,WeatherDisplay:10.37,2013-05-09 06:52:00,
2013-05-09 02:57:00,65.5,60.2,30.05,WNW,292,0.0,0.0,83,0.00,,OVC,0.00,WeatherDisplay:10.37,2013-05-09 06:57:00,
2013-05-09 03:02:00,65.5,60.5,30.05,WNW,292,0.0,0.0,84,0.00,,OVC,0.00,WeatherDisplay:10.37,2013-05-09 07:02:00,
2013-05-09 03:07:00,65.3,60.3,30.05,WNW,292,0.0,0.0,84,0.00,,OVC,0.00,WeatherDisplay:10.37,2013-05-09 07:07:00,
2013-05-09 03:12:00,65.2,60.6,30.05,WNW,292,0.0,0.0,85,0.00,,OVC,0.00,WeatherDisplay:10.37,2013-05-09 07:12:00,
2013-05-09 03:17:00,65.2,60.6,30.05,WNW,292,0.0,0.0,85,0.00,,OVC,0.00,WeatherDisplay:10.37,2013-05-09 07:17:00,
2013-05-09 03:22:00,65.0,60.4,30.05,WNW,292,0.0,0.0,85,0.00,,OVC,0.00,WeatherDisplay:10.37,2013-05-09 07:22:00,
2013-05-09 03:27:00,64.8,60.5,30.05,WNW,292,0.0,0.0,86,0.00,,OVC,0.00,WeatherDisplay:10.37,2013-05-09 07:27:00,
2013-05-09 03:32:00,64.8,60.5,30.06,WNW,292,0.0,0.0,86,0.00,,OVC,0.00,WeatherDisplay:10.37,2013-05-09 07:32:00,
2013-05-09 03:37:00,64.8,60.8,30.06,WNW,292,0.0,0.0,87,0.00,,OVC,0.00,WeatherDisplay:10.37,2013-05-09 07:37:00,
2013-05-09 03:42:00,64.8,60.8,30.06,WNW,292,0.0,0.0,87,0.00,,OVC,0.00,WeatherDisplay:10.37,2013-05-09 07:42:00,
2013-05-09 03:47:00,64.7,60.7,30.05,WNW,292,0.0,0.0,87,0.00,,OVC,0.00,WeatherDisplay:10.37,2013-05-09 07:47:00,
2013-05-09 03:52:00,64.5,60.9,30.05,WNW,292,0.0,0.0,88,0.00,,OVC,0.00,WeatherDisplay:10.37,2013-05-09 07:52:00,
2013-05-09 03:57:00,64.5,60.9,30.05,WNW,292,0.0,0.0,88,0.00,,OVC,0.00,WeatherDisplay:10.37,2013-05-09 07:57:00,
2013-05-09 04:02:00,64.3,60.7,30.04,WNW,292,0.0,0.0,88,0.00,,OVC,0.00,WeatherDisplay:10.37,2013-05-09 08:02:00,
2013-05-09 04:07:00,64.3,60.7,30.04,WNW,292,0.0,0.0,88,0.00,,OVC,0.00,WeatherDisplay:10.37,2013-05-09 08:07:00,
2013-05-09 04:12:00,64.3,61.0,30.04,WNW,292,0.0,0.0,89,0.00,,OVC,0.00,WeatherDisplay:10.37,2013-05-09 08:12:00,
2013-05-09 04:17:00,64.3,61.0,30.04,WNW,292,0.0,0.0,89,0.00,,OVC,0.00,WeatherDisplay:10.37,2013-05-09 08:17:00,
2013-05-09 04:22:00,64.3,61.0,30.04,WNW,292,0.0,0.0,89,0.00,,OVC,0.00,WeatherDisplay:10.37,2013-05-09 08:22:00,
2013-05-09 04:27:00,64.3,61.0,30.04,WNW,292,0.0,0.0,89,0.00,,OVC,0.00,WeatherDisplay:10.37,2013-05-09 08:27:00,
2013-05-09 04:32:00,64.3,61.3,30.04,WNW,292,0.0,0.0,90,0.00,,OVC,0.00,WeatherDisplay:10.37,2013-05-09 08:32:00,
2013-05-09 04:37:00,64.3,61.3,30.04,WNW,292,0.0,0.0,90,0.00,,OVC,0.00,WeatherDisplay:10.37,2013-05-09 08:37:00,
2013-05-09 04:42:00,64.3,61.3,30.04,WNW,292,0.0,0.0,90,0.00,,OVC,0.00,WeatherDisplay:10.37,2013-05-09 08:42:00,
2013-05-09 04:47:00,64.3,61.3,30.04,WNW,292,0.0,0.0,90,0.00,,OVC,0.00,WeatherDisplay:10.37,2013-05-09 08:47:00,
2013-05-09 04:52:00,64.3,61.3,30.04,WNW,292,0.0,0.0,90,0.00,,OVC,0.00,WeatherDisplay:10.37,2013-05-09 08:52:00,
2013-05-09 04:57:00,64.2,61.5,30.04,WNW,292,0.0,0.0,91,0.00,,OVC,0.00,WeatherDisplay:10.37,2013-05-09 08:57:00,
2013-05-09 05:02:00,64.2,61.5,30.04,WNW,292,0.0,0.0,91,0.00,,OVC,0.00,WeatherDisplay:10.37,2013-05-09 09:02:00,
2013-05-09 05:07:00,64.0,61.3,30.04,WNW,292,0.0,0.0,91,0.00,,OVC,0.00,WeatherDisplay:10.37,2013-05-09 09:07:00,
2013-05-09 05:12:00,64.0,61.3,30.04,WNW,292,0.0,0.0,91,0.00,,OVC,0.00,WeatherDisplay:10.37,2013-05-09 09:12:00,
2013-05-09 05:17:00,63.9,61.2,30.04,WNW,292,0.0,0.0,91,0.00,,OVC,0.00,WeatherDisplay:10.37,2013-05-09 09:17:00,
2013-05-09 05:22:00,63.9,61.2,30.04,WNW,292,0.0,0.0,91,0.00,,OVC,0.00,WeatherDisplay:10.37,2013-05-09 09:22:00,
2013-05-09 05:27:00,63.7,61.0,30.04,WNW,292,0.0,0.0,91,0.00,,OVC,0.00,WeatherDisplay:10.37,2013-05-09 09:27:00,
2013-05-09 05:32:00,63.5,60.8,30.04,WNW,292,0.0,0.0,91,0.00,,OVC,0.00,WeatherDisplay:10.37,2013-05-09 09:32:00,
2013-05-09 05:37:00,63.5,60.8,30.04,WNW,292,0.0,0.0,91,0.00,,OVC,0.00,WeatherDisplay:10.37,2013-05-09 09:37:00,
2013-05-09 05:42:00,63.5,61.1,30.04,WNW,292,0.0,0.0,92,0.00,,OVC,0.00,WeatherDisplay:10.37,2013-05-09 09:42:00,
2013-05-09 05:47:00,63.5,61.1,30.04,WNW,292,0.0,0.0,92,0.00,,OVC,0.00,WeatherDisplay:10.37,2013-05-09 09:47:00,
2013-05-09 05:52:00,63.5,61.1,30.04,WNW,292,0.0,0.0,92,0.00,,OVC,0.00,WeatherDisplay:10.37,2013-05-09 09:52:00,
2013-05-09 05:57:00,63.5,61.1,30.04,WNW,292,0.0,0.0,92,0.00,,OVC,0.00,WeatherDisplay:10.37,2013-05-09 09:57:00,
2013-05-09 06:02:00,63.5,61.1,30.05,WNW,292,0.0,0.0,92,0.00,,OVC,0.00,WeatherDisplay:10.37,2013-05-09 10:02:00,
2013-05-09 06:07:00,63.5,61.1,30.05,WNW,292,0.0,0.0,92,0.00,,OVC,0.00,WeatherDisplay:10.37,2013-05-09 10:07:00,
2013-05-09 06:12:00,63.5,61.1,30.05,WNW,292,0.0,0.0,92,0.00,,OVC,0.00,WeatherDisplay:10.37,2013-05-09 10:12:00,
2013-05-09 06:17:00,63.4,61.0,30.05,WNW,292,0.0,0.0,92,0.00,,OVC,0.00,WeatherDisplay:10.37,2013-05-09 10:17:00,
2013-05-09 06:23:00,63.4,61.0,30.05,WNW,292,0.0,0.0,92,0.00,,OVC,0.00,WeatherDisplay:10.37,2013-05-09 10:23:00,
2013-05-09 06:28:00,63.4,61.0,30.05,WNW,295,0.0,0.0,92,0.00,,OVC,0.00,WeatherDisplay:10.37,2013-05-09 10:28:00,
2013-05-09 06:33:00,63.4,61.0,30.05,WNW,297,0.0,0.0,92,0.00,,OVC,0.00,WeatherDisplay:10.37,2013-05-09 10:33:00,
2013-05-09 06:38:00,63.4,61.0,30.05,WNW,298,0.0,0.0,92,0.00,,OVC,0.00,WeatherDisplay:10.37,2013-05-09 10:38:00,
2013-05-09 06:43:00,63.4,61.0,30.05,WNW,303,3.5,0.0,92,0.00,,OVC,0.00,WeatherDisplay:10.37,2013-05-09 10:43:00,
2013-05-09 06:48:00,63.5,61.1,30.06,NW,304,0.0,0.0,92,0.00,,OVC,0.00,WeatherDisplay:10.37,2013-05-09 10:48:00,
2013-05-09 06:53:00,63.7,61.3,30.06,NW,304,5.8,5.8,92,0.00,,OVC,0.00,WeatherDisplay:10.37,2013-05-09 10:53:00,
2013-05-09 06:58:00,63.9,61.2,30.06,WNW,302,0.0,0.0,91,0.00,,OVC,0.00,WeatherDisplay:10.37,2013-05-09 10:58:00,
2013-05-09 07:03:00,64.0,61.3,30.06,WNW,302,0.0,0.0,91,0.00,,OVC,0.00,WeatherDisplay:10.37,2013-05-09 11:03:00,
2013-05-09 07:08:00,64.3,61.6,30.06,WNW,302,0.0,0.0,91,0.00,,OVC,0.00,WeatherDisplay:10.37,2013-05-09 11:08:00,
2013-05-09 07:13:00,64.5,61.8,30.06,WNW,301,0.0,0.0,91,0.00,,OVC,0.00,WeatherDisplay:10.37,2013-05-09 11:13:00,
2013-05-09 07:18:00,64.8,61.8,30.07,WNW,301,0.0,0.0,90,0.00,,OVC,0.00,WeatherDisplay:10.37,2013-05-09 11:18:00,
2013-05-09 07:23:00,65.3,62.3,30.07,WNW,301,0.0,0.0,90,0.00,,OVC,0.00,WeatherDisplay:10.37,2013-05-09 11:23:00,
2013-05-09 07:28:00,65.6,62.3,30.07,NW,315,0.0,0.0,89,0.00,,OVC,0.00,WeatherDisplay:10.37,2013-05-09 11:28:00,
2013-05-09 07:33:00,66.0,62.3,30.07,NW,315,0.0,0.0,88,0.00,,OVC,0.00,WeatherDisplay:10.37,2013-05-09 11:33:00,
2013-05-09 07:38:00,66.4,62.4,30.07,NW,315,0.0,0.0,87,0.00,,OVC,0.00,WeatherDisplay:10.37,2013-05-09 11:38:00,
2013-05-09 07:43:00,67.1,63.1,30.07,NW,315,0.0,0.0,87,0.00,,OVC,0.00,WeatherDisplay:10.37,2013-05-09 11:43:00,
2013-05-09 07:48:00,67.6,62.9,30.07,NW,315,0.0,0.0,85,0.00,,OVC,0.00,WeatherDisplay:10.37,2013-05-09 11:48:00,
2013-05-09 07:53:00,68.1,63.1,30.07,NW,315,0.0,0.0,84,0.00,,OVC,0.00,WeatherDisplay:10.37,2013-05-09 11:53:00,
2013-05-09 07:58:00,68.4,63.0,30.07,NW,315,0.0,0.0,83,0.00,,OVC,0.00,WeatherDisplay:10.37,2013-05-09 11:58:00,
2013-05-09 08:03:00,68.9,63.2,30.08,NW,315,0.0,0.0,82,0.00,,OVC,0.00,WeatherDisplay:10.37,2013-05-09 12:03:00,
2013-05-09 08:08:00,69.3,63.2,30.08,NW,315,0.0,0.0,81,0.00,,OVC,0.00,WeatherDisplay:10.37,2013-05-09 12:08:00,
2013-05-09 08:13:00,69.8,63.7,30.08,NW,316,0.0,0.0,81,0.00,,OVC,0.00,WeatherDisplay:10.37,2013-05-09 12:13:00,
2013-05-09 08:18:00,69.9,63.1,30.08,NW,309,0.0,0.0,79,0.00,,OVC,0.00,WeatherDisplay:10.37,2013-05-09 12:18:00,
2013-05-09 08:23:00,70.3,63.5,30.08,NW,309,0.0,0.0,79,0.00,,OVC,0.00,WeatherDisplay:10.37,2013-05-09 12:23:00,
2013-05-09 08:28:00,70.6,63.4,30.08,NW,310,0.0,0.0,78,0.00,,OVC,0.00,WeatherDisplay:10.37,2013-05-09 12:28:00,
2013-05-09 08:33:00,70.8,63.6,30.08,NW,310,0.0,0.0,78,0.00,,OVC,0.00,WeatherDisplay:10.37,2013-05-09 12:33:00,
2013-05-09 08:38:00,71.3,64.1,30.08,NW,310,0.0,0.0,78,0.00,,OVC,0.00,WeatherDisplay:10.37,2013-05-09 12:38:00,
2013-05-09 08:43:00,71.5,63.9,30.08,NW,310,0.0,0.0,77,0.00,,OVC,0.00,WeatherDisplay:10.37,2013-05-09 12:43:00,
2013-05-09 08:48:00,71.8,63.8,30.08,NW,311,0.0,0.0,76,0.00,,OVC,0.00,WeatherDisplay:10.37,2013-05-09 12:48:00,
2013-05-09 08:53:00,72.1,64.1,30.08,NW,311,0.0,0.0,76,0.00,,OVC,0.00,WeatherDisplay:10.37,2013-05-09 12:53:00,
2013-05-09 08:58:00,72.5,63.7,30.08,NW,311,0.0,0.0,74,0.00,,OVC,0.00,WeatherDisplay:10.37,2013-05-09 12:58:00,
2013-05-09 09:03:00,72.8,64.4,30.09,NW,313,0.0,0.0,75,0.00,,OVC,0.00,WeatherDisplay:10.37,2013-05-09 13:03:00,
2013-05-09 09:08:00,73.5,64.7,30.09,NW,313,0.0,0.0,74,0.00,,OVC,0.00,WeatherDisplay:10.37,2013-05-09 13:08:00,
2013-05-09 09:13:00,74.4,65.2,30.09,NW,313,0.0,0.0,73,0.00,,OVC,0.00,WeatherDisplay:10.37,2013-05-09 13:13:00,
2013-05-09 09:18:00,75.4,64.9,30.09,NW,313,0.0,0.0,70,0.00,,OVC,0.00,WeatherDisplay:10.37,2013-05-09 13:18:00,
2013-05-09 09:23:00,76.1,64.8,30.09,NW,313,0.0,0.0,68,0.00,,OVC,0.00,WeatherDisplay:10.37,2013-05-09 13:23:00,
2013-05-09 09:28:00,76.5,65.1,30.09,NW,313,0.0,0.0,68,0.00,,OVC,0.00,WeatherDisplay:10.37,2013-05-09 13:28:00,
2013-05-09 09:33:00,77.0,65.6,30.09,NW,313,0.0,0.0,68,0.00,,OVC,0.00,WeatherDisplay:10.37,2013-05-09 13:33:00,
2013-05-09 09:38:00,77.4,64.7,30.09,NW,313,0.0,0.0,65,0.00,,OVC,0.00,WeatherDisplay:10.37,2013-05-09 13:38:00,
2013-05-09 09:43:00,77.4,65.6,30.10,NW,313,0.0,0.0,67,0.00,,OVC,0.00,WeatherDisplay:10.37,2013-05-09 13:43:00,
2013-05-09 09:48:00,77.9,64.7,30.10,NW,313,0.0,0.0,64,0.00,,OVC,0.00,WeatherDisplay:10.37,2013-05-09 13:48:00,
2013-05-09 09:53:00,78.6,64.5,30.10,NW,313,0.0,0.0,62,0.00,,OVC,0.00,WeatherDisplay:10.37,2013-05-09 13:53:00,
2013-05-09 09:58:00,79.0,63.9,30.10,NW,313,0.0,0.0,60,0.00,,OVC,0.00,WeatherDisplay:10.37,2013-05-09 13:58:00,
2013-05-09 10:03:00,79.2,62.7,30.10,NW,313,0.0,0.0,57,0.00,,OVC,0.00,WeatherDisplay:10.37,2013-05-09 14:03:00,
2013-05-09 10:08:00,79.8,61.7,30.10,NW,313,0.0,0.0,54,0.00,,OVC,0.00,WeatherDisplay:10.37,2013-05-09 14:08:00,
2013-05-09 10:13:00,80.7,63.5,30.10,NW,313,0.0,0.0,56,0.00,,OVC,0.00,WeatherDisplay:10.37,2013-05-09 14:13:00,
2013-05-09 10:18:00,81.4,60.4,30.10,NW,313,0.0,0.0,49,0.00,,OVC,0.00,WeatherDisplay:10.37,2013-05-09 14:18:00,
2013-05-09 10:23:00,82.2,61.7,30.10,NW,314,0.0,0.0,50,0.00,,OVC,0.00,WeatherDisplay:10.37,2013-05-09 14:23:00,
2013-05-09 10:28:00,82.2,61.7,30.10,NW,314,0.0,0.0,50,0.00,,OVC,0.00,WeatherDisplay:10.37,2013-05-09 14:28:00,
2013-05-09 10:33:00,82.0,61.0,30.10,SE,142,0.0,0.0,49,0.00,,OVC,0.00,WeatherDisplay:10.37,2013-05-09 14:33:00,
2013-05-09 10:38:00,81.6,60.6,30.10,SE,142,0.0,0.0,49,0.00,,OVC,0.00,WeatherDisplay:10.37,2013-05-09 14:38:00,
2013-05-09 10:43:00,81.6,62.3,30.10,SE,142,0.0,0.0,52,0.00,,OVC,0.00,WeatherDisplay:10.37,2013-05-09 14:43:00,
2013-05-09 10:48:00,82.0,62.6,30.10,SE,140,0.0,0.0,52,0.00,,OVC,0.00,WeatherDisplay:10.37,2013-05-09 14:48:00,
2013-05-09 10:53:00,82.4,63.0,30.10,East,97,0.0,0.0,52,0.00,,OVC,0.00,WeatherDisplay:10.37,2013-05-09 14:53:00,
2013-05-09 10:58:00,82.0,63.2,30.10,East,92,0.0,0.0,53,0.00,,OVC,0.00,WeatherDisplay:10.37,2013-05-09 14:58:00,
2013-05-09 11:03:00,82.2,62.8,30.10,SSE,150,0.0,0.0,52,0.00,,OVC,0.00,WeatherDisplay:10.37,2013-05-09 15:03:00,
2013-05-09 11:08:00,82.6,64.3,30.10,SSE,150,0.0,0.0,54,0.00,,OVC,0.00,WeatherDisplay:10.37,2013-05-09 15:08:00,
2013-05-09 11:13:00,82.8,63.4,30.10,ENE,65,0.0,0.0,52,0.00,,OVC,0.00,WeatherDisplay:10.37,2013-05-09 15:13:00,
2013-05-09 11:18:00,83.2,64.3,30.10,SSW,192,0.0,0.0,53,0.00,,OVC,0.00,WeatherDisplay:10.37,2013-05-09 15:18:00,
2013-05-09 11:23:00,83.2,63.7,30.10,SSW,198,0.0,0.0,52,0.00,,OVC,0.00,WeatherDisplay:10.37,2013-05-09 15:23:00,
2013-05-09 11:28:00,83.2,64.3,30.10,South,170,0.0,0.0,53,0.00,,OVC,0.00,WeatherDisplay:10.37,2013-05-09 15:28:00,
2013-05-09 11:33:00,83.4,63.9,30.10,South,170,0.0,0.0,52,0.00,,OVC,0.00,WeatherDisplay:10.37,2013-05-09 15:33:00,
2013-05-09 11:38:00,83.8,64.3,30.10,South,170,0.0,0.0,52,0.00,,OVC,0.00,WeatherDisplay:10.37,2013-05-09 15:38:00,
2013-05-09 11:43:00,84.0,64.5,30.10,SSE,150,0.0,0.0,52,0.00,,OVC,0.00,WeatherDisplay:10.37,2013-05-09 15:43:00,
2013-05-09 11:48:00,84.7,64.6,30.10,SE,141,0.0,0.0,51,0.00,,OVC,0.00,WeatherDisplay:10.37,2013-05-09 15:48:00,
2013-05-09 11:53:00,85.1,64.9,30.10,SE,141,0.0,0.0,51,0.00,,OVC,0.00,WeatherDisplay:10.37,2013-05-09 15:53:00,
2013-05-09 11:58:00,85.3,65.7,30.10,SE,142,0.0,0.0,52,0.00,,OVC,0.00,WeatherDisplay:10.37,2013-05-09 15:58:00,
2013-05-09 12:03:00,85.1,64.9,30.10,SE,125,0.0,0.0,51,0.00,,OVC,0.00,WeatherDisplay:10.37,2013-05-09 16:03:00,
2013-05-09 12:09:00,85.1,64.9,30.10,SE,125,0.0,0.0,51,0.00,,OVC,0.00,WeatherDisplay:10.37,2013-05-09 16:09:00,
2013-05-09 12:14:00,85.3,65.7,30.10,ENE,63,0.0,0.0,52,0.00,,OVC,0.00,WeatherDisplay:10.37,2013-05-09 16:14:00,
2013-05-09 12:19:00,85.1,65.5,30.10,East,87,0.0,0.0,52,0.00,,OVC,0.00,WeatherDisplay:10.37,2013-05-09 16:19:00,
2013-05-09 12:24:00,84.9,66.4,30.10,ESE,109,0.0,0.0,54,0.00,,OVC,0.00,WeatherDisplay:10.37,2013-05-09 16:24:00,
2013-05-09 12:29:00,84.3,65.3,30.10,SSE,150,0.0,0.0,53,0.00,,OVC,0.00,WeatherDisplay:10.37,2013-05-09 16:29:00,
2013-05-09 12:34:00,84.3,67.4,30.10,SE,136,0.0,0.0,57,0.00,,OVC,0.00,WeatherDisplay:10.37,2013-05-09 16:34:00,
2013-05-09 12:39:00,84.1,67.2,30.10,NE,49,0.0,0.0,57,0.00,,OVC,0.00,WeatherDisplay:10.37,2013-05-09 16:39:00,
2013-05-09 12:44:00,84.3,68.4,30.10,ESE,103,0.0,0.0,59,0.00,,OVC,0.00,WeatherDisplay:10.37,2013-05-09 16:44:00,
2013-05-09 12:49:00,84.9,68.0,30.10,SE,124,0.0,0.0,57,0.00,,OVC,0.00,WeatherDisplay:10.37,2013-05-09 16:49:00,
2013-05-09 12:54:00,84.5,68.1,30.10,South,186,0.0,0.0,58,0.00,,OVC,0.00,WeatherDisplay:10.37,2013-05-09 16:54:00,
2013-05-09 12:59:00,84.7,67.8,30.10,SE,128,0.0,0.0,57,0.00,,OVC,0.00,WeatherDisplay:10.37,2013-05-09 16:59:00,
2013-05-09 13:04:00,85.1,68.2,30.10,SE,140,0.0,0.0,57,0.00,,OVC,0.00,WeatherDisplay:10.37,2013-05-09 17:04:00,
2013-05-09 13:09:00,85.3,67.3,30.10,ESE,102,0.0,0.0,55,0.00,,OVC,0.00,WeatherDisplay:10.37,2013-05-09 17:09:00,
2013-05-09 13:14:00,85.3,67.3,30.10,SE,130,0.0,0.0,55,0.00,,OVC,0.00,WeatherDisplay:10.37,2013-05-09 17:14:00,
2013-05-09 13:19:00,85.7,67.7,30.10,SE,138,0.0,0.0,55,0.00,,OVC,0.00,WeatherDisplay:10.37,2013-05-09 17:19:00,
2013-05-09 13:24:00,86.1,68.6,30.10,SSE,167,0.0,0.0,56,0.00,,OVC,0.00,WeatherDisplay:10.37,2013-05-09 17:24:00,
2013-05-09 13:29:00,85.3,66.8,30.09,SE,136,15.0,15.0,54,0.00,,OVC,0.00,WeatherDisplay:10.37,2013-05-09 17:29:00,
2013-05-09 13:34:00,85.1,68.2,30.09,NE,36,0.0,0.0,57,0.00,,OVC,0.00,WeatherDisplay:10.37,2013-05-09 17:34:00,
2013-05-09 13:39:00,85.3,68.3,30.09,ESE,117,11.5,0.0,57,0.00,,OVC,0.00,WeatherDisplay:10.37,2013-05-09 17:39:00,
2013-05-09 13:44:00,85.3,68.8,30.09,SE,128,0.0,0.6,58,0.00,,OVC,0.00,WeatherDisplay:10.37,2013-05-09 17:44:00,
2013-05-09 13:49:00,85.5,69.5,30.09,East,83,0.0,0.0,59,0.00,,OVC,0.00,WeatherDisplay:10.37,2013-05-09 17:49:00,
2013-05-09 13:54:00,85.1,67.6,30.09,SE,139,0.0,0.0,56,0.00,,OVC,0.00,WeatherDisplay:10.37,2013-05-09 17:54:00,
2013-05-09 13:59:00,84.3,66.9,30.09,SE,140,13.8,13.8,56,0.00,,OVC,0.00,WeatherDisplay:10.37,2013-05-09 17:59:00,
2013-05-09 14:04:00,84.1,67.2,30.09,ENE,63,0.0,0.0,57,0.00,,OVC,0.00,WeatherDisplay:10.37,2013-05-09 18:04:00,
2013-05-09 14:09:00,84.5,69.1,30.09,SE,138,0.0,0.0,60,0.00,,OVC,0.00,WeatherDisplay:10.37,2013-05-09 18:09:00,
2013-05-09 14:14:00,84.9,68.0,30.09,SE,140,20.7,20.7,57,0.00,,OVC,0.00,WeatherDisplay:10.37,2013-05-09 18:14:00,
2013-05-09 14:19:00,84.7,68.8,30.09,ENE,58,0.0,0.0,59,0.00,,OVC,0.00,WeatherDisplay:10.37,2013-05-09 18:19:00,
2013-05-09 14:24:00,84.9,67.5,30.09,SE,131,0.0,0.0,56,0.00,,OVC,0.00,WeatherDisplay:10.37,2013-05-09 18:24:00,
2013-05-09 14:29:00,85.5,69.0,30.08,SE,139,9.2,9.2,58,0.00,,OVC,0.00,WeatherDisplay:10.37,2013-05-09 18:29:00,
2013-05-09 14:34:00,85.9,68.9,30.08,ESE,106,0.0,0.0,57,0.00,,OVC,0.00,WeatherDisplay:10.37,2013-05-09 18:34:00,
2013-05-09 14:39:00,85.7,69.2,30.08,NE,52,0.0,0.0,58,0.00,,OVC,0.00,WeatherDisplay:10.37,2013-05-09 18:39:00,
2013-05-09 14:44:00,85.7,69.2,30.07,ENE,74,0.0,0.0,58,0.00,,OVC,0.00,WeatherDisplay:10.37,2013-05-09 18:44:00,
2013-05-09 14:49:00,85.7,69.2,30.07,SE,142,0.0,0.0,58,0.00,,OVC,0.00,WeatherDisplay:10.37,2013-05-09 18:49:00,
2013-05-09 14:54:00,85.7,68.7,30.07,SE,142,5.8,5.8,57,0.00,,OVC,0.00,WeatherDisplay:10.37,2013-05-09 18:54:00,
2013-05-09 14:59:00,85.7,68.7,30.07,ESE,118,0.0,0.0,57,0.00,,OVC,0.00,WeatherDisplay:10.37,2013-05-09 18:59:00,
2013-05-09 15:04:00,85.3,68.8,30.07,SE,134,11.5,11.5,58,0.00,,OVC,0.00,WeatherDisplay:10.37,2013-05-09 19:04:00,
2013-05-09 15:09:00,85.1,68.2,30.07,SE,136,13.8,13.8,57,0.00,,OVC,0.00,WeatherDisplay:10.37,2013-05-09 19:09:00,
2013-05-09 15:14:00,84.7,68.8,30.06,ESE,116,2.3,2.3,59,0.00,,OVC,0.00,WeatherDisplay:10.37,2013-05-09 19:14:00,
2013-05-09 15:19:00,84.5,69.1,30.06,ESE,111,0.0,0.6,60,0.00,,OVC,0.00,WeatherDisplay:10.37,2013-05-09 19:19:00,
2013-05-09 15:24:00,84.5,69.6,30.06,East,98,9.2,9.2,61,0.00,,OVC,0.00,WeatherDisplay:10.37,2013-05-09 19:24:00,
2013-05-09 15:29:00,84.5,69.1,30.05,East,99,11.5,11.5,60,0.00,,OVC,0.00,WeatherDisplay:10.37,2013-05-09 19:29:00,
2013-05-09 15:34:00,84.0,69.6,30.05,SE,127,10.4,10.4,62,0.00,,OVC,0.00,WeatherDisplay:10.37,2013-05-09 19:34:00,
2013-05-09 15:39:00,83.6,69.2,30.05,ENE,69,0.0,0.0,62,0.00,,OVC,0.00,WeatherDisplay:10.37,2013-05-09 19:39:00,
2013-05-09 15:44:00,83.2,68.8,30.05,ENE,59,0.0,0.0,62,0.00,,OVC,0.00,WeatherDisplay:10.37,2013-05-09 19:44:00,
2013-05-09 15:49:00,83.0,69.1,30.05,SE,134,5.8,5.8,63,0.00,,OVC,0.00,WeatherDisplay:10.37,2013-05-09 19:49:00,
2013-05-09 15:54:00,82.8,68.0,30.05,East,85,0.0,0.0,61,0.00,,OVC,0.00,WeatherDisplay:10.37,2013-05-09 19:54:00,
2013-05-09 15:59:00,83.2,68.3,30.04,SE,140,0.0,0.0,61,0.00,,OVC,0.00,WeatherDisplay:10.37,2013-05-09 19:59:00,
2013-05-09 16:04:00,83.4,68.1,30.04,East,98,0.0,0.0,60,0.00,,OVC,0.00,WeatherDisplay:10.37,2013-05-09 20:04:00,
2013-05-09 16:09:00,83.8,68.9,30.04,ENE,78,0.0,0.0,61,0.00,,OVC,0.00,WeatherDisplay:10.37,2013-05-09 20:09:00,
2013-05-09 16:14:00,84.5,69.1,30.04,ESE,114,0.0,0.0,60,0.00,,OVC,0.00,WeatherDisplay:10.37,2013-05-09 20:14:00,
2013-05-09 16:19:00,84.9,69.5,30.04,ENE,61,0.0,0.0,60,0.00,,OVC,0.00,WeatherDisplay:10.37,2013-05-09 20:19:00,
2013-05-09 16:24:00,85.1,68.7,30.04,ENE,65,0.0,0.0,58,0.00,,OVC,0.00,WeatherDisplay:10.37,2013-05-09 20:24:00,
2013-05-09 16:29:00,85.5,69.0,30.04,SE,134,0.0,0.0,58,0.00,,OVC,0.00,WeatherDisplay:10.37,2013-05-09 20:29:00,
2013-05-09 16:35:00,85.7,70.2,30.04,ESE,123,0.0,0.3,60,0.00,,OVC,0.00,WeatherDisplay:10.37,2013-05-09 20:35:00,
2013-05-09 16:40:00,85.7,70.2,30.04,ESE,118,0.0,0.3,60,0.00,,OVC,0.00,WeatherDisplay:10.37,2013-05-09 20:40:00,
2013-05-09 16:45:00,84.9,70.9,30.04,SE,140,0.0,0.0,63,0.00,,OVC,0.00,WeatherDisplay:10.37,2013-05-09 20:45:00,
2013-05-09 16:50:00,84.3,69.9,30.04,ENE,72,0.0,0.0,62,0.00,,OVC,0.00,WeatherDisplay:10.37,2013-05-09 20:50:00,
2013-05-09 16:55:00,84.5,70.5,30.04,East,90,0.0,0.0,63,0.00,,OVC,0.00,WeatherDisplay:10.37,2013-05-09 20:55:00,
2013-05-09 17:00:00,84.9,69.9,30.04,NE,40,0.0,0.0,61,0.00,,OVC,0.00,WeatherDisplay:10.37,2013-05-09 21:00:00,
2013-05-09 17:05:00,85.1,70.1,30.04,ENE,63,4.0,0.0,61,0.00,,OVC,0.00,WeatherDisplay:10.37,2013-05-09 21:05:00,
2013-05-09 17:10:00,85.1,70.1,30.04,SSE,153,11.5,11.5,61,0.00,,OVC,0.00,WeatherDisplay:10.37,2013-05-09 21:10:00,
2013-05-09 17:15:00,84.3,70.8,30.04,ENE,59,0.0,0.0,64,0.00,,OVC,0.00,WeatherDisplay:10.37,2013-05-09 21:15:00,
2013-05-09 17:20:00,83.6,70.6,30.04,East,87,0.0,0.0,65,0.00,,OVC,0.00,WeatherDisplay:10.37,2013-05-09 21:20:00,
2013-05-09 17:25:00,83.0,70.5,30.04,SSE,150,1.2,0.0,66,0.00,,OVC,0.00,WeatherDisplay:10.37,2013-05-09 21:25:00,
2013-05-09 17:30:00,82.8,70.7,30.04,SE,130,9.0,9.0,67,0.00,,OVC,0.00,WeatherDisplay:10.37,2013-05-09 21:30:00,
2013-05-09 17:35:00,82.4,70.3,30.04,ESE,104,0.0,0.1,67,0.00,,OVC,0.00,WeatherDisplay:10.37,2013-05-09 21:35:00,
2013-05-09 17:40:00,82.2,71.0,30.04,NE,44,0.0,0.0,69,0.00,,OVC,0.00,WeatherDisplay:10.37,2013-05-09 21:40:00,
2013-05-09 17:45:00,82.2,71.0,30.04,SSE,150,11.0,11.0,69,0.00,,OVC,0.00,WeatherDisplay:10.37,2013-05-09 21:45:00,
2013-05-09 17:50:00,82.4,71.2,30.04,SSE,153,4.6,4.6,69,0.00,,OVC,0.00,WeatherDisplay:10.37,2013-05-09 21:50:00,
2013-05-09 17:55:00,82.6,71.0,30.04,SE,128,8.1,8.1,68,0.00,,OVC,0.00,WeatherDisplay:10.37,2013-05-09 21:55:00,
2013-05-09 18:00:00,82.2,70.6,30.04,ESE,115,20.7,20.7,68,0.00,,OVC,0.00,WeatherDisplay:10.37,2013-05-09 22:00:00,
2013-05-09 18:05:00,82.0,70.8,30.04,East,95,11.5,11.5,69,0.00,,OVC,0.00,WeatherDisplay:10.37,2013-05-09 22:05:00,
2013-05-09 18:10:00,81.6,70.4,30.04,SSE,166,0.0,0.0,69,0.00,,OVC,0.00,WeatherDisplay:10.37,2013-05-09 22:10:00,
2013-05-09 18:15:00,81.4,70.7,30.03,SE,142,16.1,16.1,70,0.00,,OVC,0.00,WeatherDisplay:10.37,2013-05-09 22:15:00,
2013-05-09 18:20:00,81.2,70.9,30.03,ESE,121,0.0,0.0,71,0.00,,OVC,0.00,WeatherDisplay:10.37,2013-05-09 22:20:00,
2013-05-09 18:25:00,80.9,70.6,30.03,ESE,102,0.0,0.0,71,0.00,,OVC,0.00,WeatherDisplay:10.37,2013-05-09 22:25:00,
2013-05-09 18:30:00,80.9,70.6,30.04,SE,125,8.1,8.1,71,0.00,,OVC,0.00,WeatherDisplay:10.37,2013-05-09 22:30:00,
2013-05-09 18:35:00,80.9,71.0,30.04,NE,44,12.7,12.7,72,0.00,,OVC,0.00,WeatherDisplay:10.37,2013-05-09 22:35:00,
2013-05-09 18:40:00,80.9,70.6,30.04,SSE,147,3.5,3.5,71,0.00,,OVC,0.00,WeatherDisplay:10.37,2013-05-09 22:40:00,
2013-05-09 18:45:00,81.1,70.8,30.04,ENE,63,0.0,0.0,71,0.00,,OVC,0.00,WeatherDisplay:10.37,2013-05-09 22:45:00,
2013-05-09 18:50:00,81.2,70.9,30.04,SE,144,12.7,12.7,71,0.00,,OVC,0.00,WeatherDisplay:10.37,2013-05-09 22:50:00,
2013-05-09 18:55:00,81.1,71.2,30.04,East,89,0.0,1.9,72,0.00,,OVC,0.00,WeatherDisplay:10.37,2013-05-09 22:55:00,
2013-05-09 19:00:00,81.1,71.2,30.04,ESE,119,21.9,21.9,72,0.00,,OVC,0.00,WeatherDisplay:10.37,2013-05-09 23:00:00,
2013-05-09 19:05:00,81.1,71.2,30.04,SE,141,0.0,0.0,72,0.00,,OVC,0.00,WeatherDisplay:10.37,2013-05-09 23:05:00,
2013-05-09 19:10:00,80.9,71.0,30.04,ENE,69,0.0,0.0,72,0.00,,OVC,0.00,WeatherDisplay:10.37,2013-05-09 23:10:00,
2013-05-09 19:15:00,80.9,71.0,30.04,East,90,0.0,0.0,72,0.00,,OVC,0.00,WeatherDisplay:10.37,2013-05-09 23:15:00,
2013-05-09 19:20:00,80.9,71.0,30.04,SSE,150,4.0,4.0,72,0.00,,OVC,0.00,WeatherDisplay:10.37,2013-05-09 23:20:00,
2013-05-09 19:25:00,80.9,71.0,30.04,ENE,65,0.0,0.0,72,0.00,,OVC,0.00,WeatherDisplay:10.37,2013-05-09 23:25:00,
2013-05-09 19:30:00,80.7,70.8,30.03,SE,125,0.0,0.0,72,0.00,,OVC,0.00,WeatherDisplay:10.37,2013-05-09 23:30:00,
2013-05-09 19:35:00,80.7,71.2,30.03,SE,135,19.6,19.6,73,0.00,,OVC,0.00,WeatherDisplay:10.37,2013-05-09 23:35:00,
2013-05-09 19:40:00,80.5,71.0,30.03,ENE,61,0.0,0.0,73,0.00,,OVC,0.00,WeatherDisplay:10.37,2013-05-09 23:40:00,
2013-05-09 19:45:00,80.1,70.7,30.04,ENE,66,0.0,0.1,73,0.00,,OVC,0.00,WeatherDisplay:10.37,2013-05-09 23:45:00,
2013-05-09 19:50:00,80.1,71.1,30.04,SE,137,5.8,5.8,74,0.00,,OVC,0.00,WeatherDisplay:10.37,2013-05-09 23:50:00,
2013-05-09 19:55:00,79.9,70.9,30.04,East,86,0.0,0.0,74,0.00,,OVC,0.00,WeatherDisplay:10.37,2013-05-09 23:55:00,
2013-05-09 20:00:00,79.8,70.8,30.06,ENE,73,0.0,0.0,74,0.00,,OVC,0.00,WeatherDisplay:10.37,2013-05-10 00:00:00,
2013-05-09 20:05:00,79.8,71.2,30.06,SE,127,0.0,0.0,75,0.00,,OVC,0.00,WeatherDisplay:10.37,2013-05-10 00:05:00,
2013-05-09 20:10:00,79.8,71.6,30.06,East,92,0.0,0.0,76,0.00,,OVC,0.00,WeatherDisplay:10.37,2013-05-10 00:10:00,
2013-05-09 20:15:00,79.6,71.4,30.06,East,96,0.0,0.0,76,0.00,,OVC,0.00,WeatherDisplay:10.37,2013-05-10 00:15:00,
2013-05-09 20:20:00,79.4,71.6,30.06,ESE,117,3.5,0.0,77,0.00,,OVC,0.00,WeatherDisplay:10.37,2013-05-10 00:20:00,
2013-05-09 20:25:00,79.2,71.4,30.06,East,94,4.6,4.6,77,0.00,,OVC,0.00,WeatherDisplay:10.37,2013-05-10 00:25:00,
2013-05-09 20:30:00,79.0,71.2,30.05,ESE,112,2.3,0.0,77,0.00,,OVC,0.00,WeatherDisplay:10.37,2013-05-10 00:30:00,
2013-05-09 20:35:00,78.8,71.4,30.05,SE,130,0.0,0.0,78,0.00,,OVC,0.00,WeatherDisplay:10.37,2013-05-10 00:35:00,
2013-05-09 20:40:00,78.8,71.4,30.05,SE,131,12.7,12.7,78,0.00,,OVC,0.00,WeatherDisplay:10.37,2013-05-10 00:40:00,
2013-05-09 20:45:00,78.8,71.4,30.06,SE,128,0.0,0.0,78,0.00,,OVC,0.00,WeatherDisplay:10.37,2013-05-10 00:45:00,
2013-05-09 20:50:00,78.8,71.0,30.06,SE,124,0.0,0.0,77,0.00,,OVC,0.00,WeatherDisplay:10.37,2013-05-10 00:50:00,
2013-05-09 20:56:00,78.8,71.4,30.06,SE,128,0.0,0.0,78,0.00,,OVC,0.00,WeatherDisplay:10.37,2013-05-10 00:56:00,
2013-05-09 21:01:00,78.6,71.2,30.06,ESE,112,0.0,0.0,78,0.00,,OVC,0.00,WeatherDisplay:10.37,2013-05-10 01:01:00,
2013-05-09 21:06:00,78.6,71.5,30.06,SE,136,0.0,0.0,79,0.00,,OVC,0.00,WeatherDisplay:10.37,2013-05-10 01:06:00,
2013-05-09 21:11:00,78.5,71.4,30.06,SE,128,0.0,0.0,79,0.00,,OVC,0.00,WeatherDisplay:10.37,2013-05-10 01:11:00,
2013-05-09 21:16:00,78.5,71.8,30.06,SE,135,3.5,3.5,80,0.00,,OVC,0.00,WeatherDisplay:10.37,2013-05-10 01:16:00,
2013-05-09 21:21:00,78.5,71.8,30.06,ESE,113,0.0,0.0,80,0.00,,OVC,0.00,WeatherDisplay:10.37,2013-05-10 01:21:00,
2013-05-09 21:26:00,78.5,71.8,30.06,ESE,121,2.3,2.3,80,0.00,,OVC,0.00,WeatherDisplay:10.37,2013-05-10 01:26:00,
2013-05-09 21:31:00,78.5,71.8,30.07,ESE,120,0.0,0.0,80,0.00,,OVC,0.00,WeatherDisplay:10.37,2013-05-10 01:31:00,
2013-05-09 21:36:00,78.5,71.8,30.07,ESE,119,0.0,0.0,80,0.00,,OVC,0.00,WeatherDisplay:10.37,2013-05-10 01:36:00,
2013-05-09 21:41:00,78.3,72.0,30.07,ESE,119,0.0,0.0,81,0.00,,OVC,0.00,WeatherDisplay:10.37,2013-05-10 01:41:00,
2013-05-09 21:46:00,78.3,72.0,30.08,SE,139,0.0,0.1,81,0.00,,OVC,0.00,WeatherDisplay:10.37,2013-05-10 01:46:00,
2013-05-09 21:51:00,78.3,72.0,30.08,SE,138,0.0,0.0,81,0.00,,OVC,0.00,WeatherDisplay:10.37,2013-05-10 01:51:00,
2013-05-09 21:56:00,78.3,72.0,30.08,SE,137,0.0,0.0,81,0.00,,OVC,0.00,WeatherDisplay:10.37,2013-05-10 01:56:00,
2013-05-09 22:01:00,78.3,72.0,30.08,SE,143,0.0,0.1,81,0.00,CLR,OVC,0.00,WeatherDisplay:10.37,2013-05-10 02:01:00,
2013-05-09 22:06:00,78.3,72.0,30.08,SE,127,9.2,0.0,81,0.00,CLR,OVC,0.00,WeatherDisplay:10.37,2013-05-10 02:06:00,
2013-05-09 22:11:00,78.5,71.8,30.08,SE,126,0.0,0.0,80,0.00,CLR,OVC,0.00,WeatherDisplay:10.37,2013-05-10 02:11:00,
2013-05-09 22:16:00,78.5,71.4,30.08,ESE,104,0.0,0.0,79,0.00,CLR,OVC,0.00,WeatherDisplay:10.37,2013-05-10 02:16:00,
2013-05-09 22:21:00,78.5,71.4,30.08,ESE,103,0.0,0.0,79,0.00,CLR,OVC,0.00,WeatherDisplay:10.37,2013-05-10 02:21:00,
2013-05-09 22:26:00,78.3,71.2,30.08,ESE,103,0.0,0.0,79,0.00,CLR,OVC,0.00,WeatherDisplay:10.37,2013-05-10 02:26:00,
2013-05-09 22:31:00,78.3,71.2,30.08,ESE,103,0.0,0.0,79,0.00,CLR,OVC,0.00,WeatherDisplay:10.37,2013-05-10 02:31:00,
2013-05-09 22:36:00,78.3,71.2,30.08,ESE,103,0.0,0.0,79,0.00,CLR,OVC,0.00,WeatherDisplay:10.37,2013-05-10 02:36:00,
2013-05-09 22:41:00,78.1,71.1,30.08,SE,124,0.0,0.0,79,0.00,CLR,OVC,0.00,WeatherDisplay:10.37,2013-05-10 02:41:00,
2013-05-09 22:46:00,78.1,71.1,30.07,SE,127,0.0,0.0,79,0.00,CLR,OVC,0.00,WeatherDisplay:10.37,2013-05-10 02:46:00,
2013-05-09 22:51:00,77.9,71.2,30.07,SE,127,0.0,0.0,80,0.00,CLR,OVC,0.00,WeatherDisplay:10.37,2013-05-10 02:51:00,
2013-05-09 22:56:00,77.9,71.2,30.07,SE,128,0.0,0.0,80,0.00,CLR,OVC,0.00,WeatherDisplay:10.37,2013-05-10 02:56:00,
2013-05-09 23:01:00,77.7,71.0,30.07,SE,128,0.0,0.0,80,0.00,,OVC,0.00,WeatherDisplay:10.37,2013-05-10 03:01:00,
2013-05-09 23:06:00,77.7,71.0,30.07,SE,128,0.0,0.0,80,0.00,,OVC,0.00,WeatherDisplay:10.37,2013-05-10 03:06:00,
2013-05-09 23:11:00,77.7,71.4,30.07,SE,127,0.0,0.0,81,0.00,,OVC,0.00,WeatherDisplay:10.37,2013-05-10 03:11:00,
2013-05-09 23:16:00,77.7,71.0,30.08,SE,127,0.0,0.0,80,0.00,,OVC,0.00,WeatherDisplay:10.37,2013-05-10 03:16:00,
2013-05-09 23:21:00,77.6,71.3,30.08,SE,127,0.0,0.0,81,0.00,,OVC,0.00,WeatherDisplay:10.37,2013-05-10 03:21:00,
2013-05-09 23:26:00,77.6,71.3,30.08,SE,127,0.0,0.0,81,0.00,,OVC,0.00,WeatherDisplay:10.37,2013-05-10 03:26:00,
2013-05-09 23:31:00,77.4,71.1,30.09,SE,127,0.0,0.0,81,0.00,,OVC,0.00,WeatherDisplay:10.37,2013-05-10 03:31:00,
2013-05-09 23:36:00,77.4,71.1,30.09,SE,127,0.0,0.0,81,0.00,,OVC,0.00,WeatherDisplay:10.37,2013-05-10 03:36:00,
2013-05-09 23:41:00,77.4,71.5,30.09,SE,127,0.0,0.0,82,0.00,,OVC,0.00,WeatherDisplay:10.37,2013-05-10 03:41:00,
2013-05-09 23:46:00,77.2,71.3,30.09,SE,127,0.0,0.0,82,0.00,,OVC,0.00,WeatherDisplay:10.37,2013-05-10 03:46:00,
2013-05-09 23:51:00,77.2,71.3,30.09,SE,127,0.0,0.0,82,0.00,,OVC,0.00,WeatherDisplay:10.37,2013-05-10 03:51:00,
2013-05-09 23:56:00,77.0,71.1,30.09,SE,128,0.0,0.0,82,0.00,,OVC,0.00,WeatherDisplay:10.37,2013-05-10 03:56:00,